Location: Saint-Michel-des-Saints
(46.6688°N, 73.9573°W)
Time: 19:22:12
(UTC-04:00)

N. Korean satellite - Visible Passes

Search period start: 24 March 2019 00:00
Search period end: 03 April 2019 00:00
Orbit: 456 x 510 km, 97.2° (Epoch: 24 March)

Date Brightness Start Highest point End Pass type
(mag) Time Alt. Az. Time Alt. Az. Time Alt. Az.
24 Mar 10.0 06:08:33 10° ENE 06:10:33 14° E 06:12:35 10° SE visible
28 Mar 10.1 06:02:58 10° ENE 06:04:37 13° E 06:06:17 10° ESE visible
01 Apr 10.4 05:57:33 10° ENE 05:58:39 11° E 05:59:45 10° ESE visible
